Date String (YYYY-MM-DD hh:mm:ss) UTC,Instrument flags,absolute air pressure of the measurement (hPa),sample flow rate (lpm),inlet stack bypass flow (lpm),air temperature of the measurement (°C),ambient temperature measured by the external sensor (°C),aerosol sample conditioner tube jacket temperature (°C),OPC LED temperature (°C),internal box temperature (°C),relative humidity of the measurement (%),span deviation,mass concentration of particles derived from Lorenz-Mie calculation of OPC scattering (μg/m³),mass concentration of particles derived from Lorenz-Mie calculation of OPC scattering (μg/m³),mass concentration of particles derived from Lorenz-Mie calculation of OPC scattering (μg/m³)
DateTimeUTC,F1_M11,P_M11,Q1_M11,Q2_M11,T1_M11,T2_M11,T3_M11,T4_M11,T5_M11,U1_M11,ZSPAN_M11,X0_M11,X2_M11,X1_M11
2024-02-19 01:00:00,SystemResetWarning,0821.8,5.00,000.00,021.1,020.2,000.0,029.5,022.8,15.7,0000.0,0000.70,0000.37,0000.27
2024-02-19 01:01:00,SystemResetWarning,0821.8,5.00,000.00,021.0,020.2,000.0,029.5,022.8,15.7,0000.0,0000.74,0000.39,0000.27
2024-02-19 01:02:00,SystemResetWarning,0821.8,4.99,000.00,021.0,020.2,000.0,029.5,022.8,15.8,0000.0,0000.72,0000.39,0000.28
2024-02-19 01:03:00,SystemResetWarning,0821.9,5.00,000.00,021.0,020.2,000.0,029.5,022.7,15.8,0000.0,0000.76,0000.37,0000.27
2024-02-19 01:04:00,SystemResetWarning,0821.9,4.99,000.00,021.0,020.1,000.0,029.5,022.7,15.8,0000.0,0001.29,0000.37,0000.28
2024-02-19 01:05:00,SystemResetWarning,0821.9,5.00,000.00,021.0,020.1,000.0,029.5,022.7,15.9,0000.0,0001.37,0000.37,0000.28
2024-02-19 01:06:00,SystemResetWarning,0822.0,5.01,000.00,021.0,020.1,000.0,029.4,022.7,15.7,0000.0,0001.48,0000.39,0000.28
2024-02-19 01:07:00,SystemResetWarning,0822.0,5.00,000.00,020.9,020.1,000.0,029.4,022.7,15.8,0000.0,0003.04,0000.42,0000.28
2024-02-19 01:08:00,SystemResetWarning,0821.9,5.01,000.00,020.9,020.1,000.0,029.4,022.7,16.0,0000.0,0003.08,0000.43,0000.28
2024-02-19 01:09:00,SystemResetWarning,0821.9,5.00,000.00,020.9,020.1,000.0,029.4,022.7,16.0,0000.0,0003.03,0000.41,0000.28
2024-02-19 01:10:00,SystemResetWarning,0821.9,4.99,000.00,020.9,020.1,000.0,029.4,022.7,16.1,0000.0,0003.06,0000.42,0000.28
2024-02-19 01:11:00,SystemResetWarning,0821.9,5.00,000.00,020.9,020.0,000.0,029.4,022.6,15.9,0000.0,0003.06,0000.43,0000.29
2024-02-19 01:12:00,SystemResetWarning,0822.0,5.01,000.00,020.9,020.0,000.0,029.4,022.6,16.0,0000.0,0003.05,0000.43,0000.29
2024-02-19 01:13:00,SystemResetWarning,0822.0,5.01,000.00,020.9,020.0,000.0,029.3,022.6,16.0,0000.0,0003.01,0000.41,0000.28
2024-02-19 01:14:00,SystemResetWarning,0821.9,5.00,000.00,020.9,020.0,000.0,029.3,022.6,16.3,0000.0,0003.07,0000.43,0000.28
2024-02-19 01:15:00,SystemResetWarning,0821.9,4.99,000.00,020.9,020.0,000.0,029.3,022.6,16.3,0000.0,0002.56,0000.43,0000.28
2024-02-19 01:16:00,SystemResetWarning,0822.0,4.99,000.00,020.8,020.0,000.0,029.3,022.5,16.3,0000.0,0002.54,0000.43,0000.28
2024-02-19 01:17:00,SystemResetWarning,0822.0,5.00,000.00,020.8,019.9,000.0,029.3,022.5,16.4,0000.0,0002.43,0000.42,0000.28
2024-02-19 01:18:00,SystemResetWarning,0822.0,5.01,000.00,020.8,019.9,000.0,029.3,022.5,16.4,0000.0,0001.13,0000.41,0000.28
2024-02-19 01:19:00,SystemResetWarning,0822.0,5.00,000.00,020.8,019.9,000.0,029.3,022.5,16.5,0000.0,0001.01,0000.42,0000.28
2024-02-19 01:20:00,SystemResetWarning,0822.1,5.00,000.00,020.8,019.9,000.0,029.2,022.5,16.3,0000.0,0001.04,0000.44,0000.29
2024-02-19 01:21:00,SystemResetWarning,0822.1,4.99,000.00,020.8,019.9,000.0,029.2,022.5,16.1,0000.0,0001.05,0000.44,0000.29
2024-02-19 01:22:00,SystemResetWarning,0822.1,5.00,000.00,020.8,019.8,000.0,029.2,022.5,16.3,0000.0,0001.01,0000.42,0000.28
2024-02-19 01:23:00,SystemResetWarning,0822.1,4.99,000.00,020.8,019.8,000.0,029.2,022.5,16.4,0000.0,0001.05,0000.44,0000.29
2024-02-19 01:24:00,SystemResetWarning,0822.1,5.00,000.00,020.7,019.8,000.0,029.2,022.5,16.4,0000.0,0001.03,0000.43,0000.29
2024-02-19 01:25:00,SystemResetWarning,0822.1,5.00,000.00,020.7,019.8,000.0,029.2,022.4,16.5,0000.0,0000.99,0000.42,0000.29
2024-02-19 01:26:00,SystemResetWarning,0822.1,5.01,000.00,020.7,019.8,000.0,029.2,022.4,16.5,0000.0,0000.83,0000.41,0000.29
2024-02-19 01:27:00,SystemResetWarning,0822.1,5.01,000.00,020.7,019.8,000.0,029.2,022.4,16.4,0000.0,0000.71,0000.40,0000.29
2024-02-19 01:28:00,SystemResetWarning,0822.0,5.00,000.00,020.7,019.8,000.0,029.2,022.4,16.4,0000.0,0000.70,0000.39,0000.29
2024-02-19 01:29:00,SystemResetWarning,0822.0,4.99,000.00,020.7,019.8,000.0,029.1,022.4,16.3,0000.0,0001.82,0000.38,0000.29
2024-02-19 01:30:00,SystemResetWarning,0822.1,4.99,000.00,020.7,019.7,000.0,029.1,022.4,16.3,0000.0,0002.10,0000.34,0000.28
2024-02-19 01:31:00,SystemResetWarning,0822.1,5.00,000.00,020.6,019.7,000.0,029.1,022.3,16.3,0000.0,0002.05,0000.32,0000.28
2024-02-19 01:32:00,SystemResetWarning,0822.2,5.02,000.00,020.6,019.7,000.0,029.1,022.3,16.3,0000.0,0002.05,0000.32,0000.28
2024-02-19 01:33:00,SystemResetWarning,0822.2,5.00,000.00,020.6,019.7,000.0,029.1,022.3,16.3,0000.0,0002.06,0000.33,0000.29
2024-02-19 01:34:00,SystemResetWarning,0822.2,4.99,000.00,020.6,019.7,000.0,029.1,022.3,16.1,0000.0,0002.03,0000.32,0000.29
2024-02-19 01:35:00,SystemResetWarning,0822.2,4.99,000.00,020.6,019.6,000.0,029.1,022.3,16.2,0000.0,0002.07,0000.34,0000.30
2024-02-19 01:36:00,SystemResetWarning,0822.2,5.01,000.00,020.5,019.6,000.0,029.1,022.2,16.1,0000.0,0002.15,0000.36,0000.29
2024-02-19 01:37:00,SystemResetWarning,0822.3,5.01,000.00,020.5,019.6,000.0,029.0,022.2,16.4,0000.0,0002.26,0000.38,0000.29
2024-02-19 01:38:00,SystemResetWarning,0822.3,5.00,000.00,020.5,019.6,000.0,029.0,022.2,16.5,0000.0,0002.38,0000.42,0000.29
2024-02-19 01:39:00,SystemResetWarning,0822.4,4.99,000.00,020.5,019.6,000.0,029.0,022.2,16.4,0000.0,0002.51,0000.43,0000.29
2024-02-19 01:40:00,SystemResetWarning,0822.4,5.00,000.00,020.5,019.5,000.0,029.0,022.2,16.3,0000.0,0001.27,0000.42,0000.30
2024-02-19 01:41:00,SystemResetWarning,0822.3,5.00,000.00,020.5,019.5,000.0,029.0,022.2,16.6,0000.0,0000.90,0000.43,0000.30
2024-02-19 01:42:00,SystemResetWarning,0822.4,5.00,000.00,020.5,019.6,000.0,029.0,022.2,16.8,0000.0,0000.93,0000.44,0000.30
2024-02-19 01:43:00,SystemResetWarning,0822.3,5.01,000.00,020.5,019.6,000.0,029.0,022.2,16.7,0000.0,0000.96,0000.43,0000.29
2024-02-19 01:44:00,SystemResetWarning,0822.3,5.00,000.00,020.5,019.6,000.0,028.9,022.2,16.6,0000.0,0001.24,0000.43,0000.29
2024-02-19 01:45:00,SystemResetWarning,0822.4,5.01,000.00,020.5,019.6,000.0,028.9,022.1,16.6,0000.0,0001.23,0000.42,0000.28
2024-02-19 01:46:00,SystemResetWarning,0822.8,5.00,000.00,020.4,019.5,000.0,028.9,022.1,16.6,0000.0,0001.22,0000.41,0000.28
2024-02-19 01:47:00,SystemResetWarning,0822.8,5.00,000.00,020.4,019.5,000.0,028.9,022.1,16.5,0000.0,0001.50,0000.40,0000.28
2024-02-19 01:48:00,SystemResetWarning,0822.7,4.99,000.00,020.4,019.5,000.0,028.9,022.1,16.5,0000.0,0001.45,0000.42,0000.29
2024-02-19 01:49:00,SystemResetWarning,0822.7,5.00,000.00,020.4,019.4,000.0,028.9,022.1,16.3,0000.0,0001.37,0000.39,0000.29
2024-02-19 01:50:00,SystemResetWarning,0822.7,4.99,000.00,020.4,019.4,000.0,028.8,022.1,16.3,0000.0,0001.21,0000.37,0000.29
2024-02-19 01:51:00,SystemResetWarning,0822.8,5.00,000.00,020.4,019.4,000.0,028.8,022.1,16.4,0000.0,0001.23,0000.38,0000.29
2024-02-19 01:52:00,SystemResetWarning,0822.7,5.00,000.00,020.3,019.4,000.0,028.8,022.0,16.3,0000.0,0001.30,0000.40,0000.29
2024-02-19 01:53:00,SystemResetWarning,0822.7,5.00,000.00,020.3,019.4,000.0,028.8,022.0,16.3,0000.0,0001.36,0000.42,0000.30
2024-02-19 01:54:00,SystemResetWarning,0822.9,5.01,000.00,020.3,019.4,000.0,028.8,022.0,16.4,0000.0,0001.41,0000.45,0000.31
2024-02-19 01:55:00,SystemResetWarning,0822.9,5.00,000.00,020.3,019.4,000.0,028.8,022.0,16.6,0000.0,0001.17,0000.47,0000.32
2024-02-19 01:56:00,SystemResetWarning,0822.8,4.99,000.00,020.3,019.4,000.0,028.8,022.0,16.5,0000.0,0001.13,0000.47,0000.31
2024-02-19 01:57:00,SystemResetWarning,0823.0,5.00,000.00,020.3,019.4,000.0,028.7,022.0,16.4,0000.0,0001.12,0000.46,0000.31
2024-02-19 01:58:00,SystemResetWarning,0823.0,5.00,000.00,020.3,019.3,000.0,028.7,021.9,16.5,0000.0,0000.81,0000.44,0000.30
2024-02-19 01:59:00,SystemResetWarning,0822.9,5.00,000.00,020.3,019.3,000.0,028.7,021.9,16.6,0000.0,0000.72,0000.42,0000.29
